This is the latest recevied weather packets stored in our database for station/object DL2GFH-3. If no packets are shown the sender has not sent any weather packets the latest 1 day(s).
| Time | Temp. | Humidity | Pressure | Rain* | Wind** | Luminosity | Snow |
|---|---|---|---|---|---|---|---|
| 1777965911 | 23.33° C | 28% | 1009.9 hPa | - | 0 m/s | - | - |
| 1777965006 | 22.22° C | 30% | 1009.9 hPa | - | 0 m/s | - | - |
| 1777964100 | 21.11° C | 31% | 1010 hPa | - | 0 m/s | - | - |
| 1777963195 | 20° C | 34% | 1010.3 hPa | - | 0 m/s | - | - |
| 1777962290 | 19.44° C | 35% | 1010.5 hPa | - | 0 m/s | - | - |
| 1777961384 | 18.89° C | 36% | 1010.5 hPa | - | 0 m/s | - | - |
| 1777960479 | 18.89° C | 36% | 1010.3 hPa | - | 0 m/s | - | - |
| 1777958668 | 18.33° C | 37% | 1010.4 hPa | - | 0 m/s | - | - |
| 1777957763 | 18.33° C | 37% | 1010.4 hPa | - | 0 m/s | - | - |
| 1777956857 | 17.78° C | 37% | 1010.4 hPa | - | 0 m/s | - | - |
| 1777955952 | 17.78° C | 37% | 1010.5 hPa | - | 0 m/s | - | - |
| 1777955046 | 17.78° C | 37% | 1010.5 hPa | - | 0 m/s | - | - |
| 1777954141 | 17.78° C | 37% | 1010.5 hPa | - | 0 m/s | - | - |
| 1777953235 | 18.33° C | 37% | 1010.6 hPa | - | 0 m/s | - | - |
| 1777952330 | 18.33° C | 37% | 1010.8 hPa | - | 0 m/s | - | - |
| 1777951425 | 18.33° C | 37% | 1010.7 hPa | - | 0 m/s | - | - |
| 1777950519 | 18.33° C | 37% | 1010.9 hPa | - | 0 m/s | - | - |
| 1777949614 | 18.33° C | 37% | 1011 hPa | - | 0 m/s | - | - |
| 1777948708 | 18.33° C | 37% | 1011 hPa | - | 0 m/s | - | - |
| 1777947803 | 18.33° C | 37% | 1011.1 hPa | - | 0 m/s | - | - |
| 1777946897 | 18.33° C | 37% | 1011.2 hPa | - | 0 m/s | - | - |
| 1777945992 | 18.33° C | 37% | 1011.4 hPa | - | 0 m/s | - | - |
| 1777945087 | 18.89° C | 37% | 1011.4 hPa | - | 0 m/s | - | - |
| 1777944181 | 18.89° C | 37% | 1011.6 hPa | - | 0 m/s | - | - |
| 1777943276 | 18.89° C | 37% | 1011.8 hPa | - | 0 m/s | - | - |
* Rain since midnight (hover to see other rain measurements)
** Current wind speed in m/s (hover to see current wind gust speed)